[[{"header":{"parameterUnit":"m.s-1","parameterCategory":1,"la1":30.2991,"la2":30.254,"lo1":-89.0895,"lo2":-89.0444,"dy":0.0017,"dx":0.0017,"nx":28,"ny":28,"refTime":"2025-08-14T03:00:00:Z","depth":0,"parameterNumber":2,"parameterNumberName":"U-component_of_WINDS"},"data":[0,0,0,0,0,0,0,0,0,0,0,0,0,0,0,0,0,0,0,0,0,0,0,0,0,0,0,0,0,0,0,0,0,0,0,0,0,0,0,0,0,0,0,0,0,0,0,0,0,0,0,0,0,0,0,0,0,0,2.9467,2.9467,0,2.9519,2.952,2.952,2.9447,2.9444,2.9441,2.9439,2.9493,2.9497,2.9501,0,0,0,0,0,0,0,0,0,0,0,0,0,2.9301,2.9304,2.9466,2.9467,2.9468,2.9519,2.952,2.952,2.9447,2.9444,2.9441,2.9438,2.9492,2.9496,2.9501,0,0,0,0,0,0,0,0,0,0,0,0,0,2.9365,2.9305,2.9466,2.9437,2.9435,2.9519,2.952,2.9521,2.9448,2.9444,2.944,2.9436,2.949,2.9496,2.9502,2.9616,0,0,2.9519,2.9522,0,0,0,0,0,0,0,0,2.9362,2.9371,2.9441,2.944,2.9437,2.9472,2.9481,2.9553,2.9449,2.9443,2.9439,2.9434,2.9489,2.9495,2.9513,2.9619,2.9621,2.952,2.9524,2.9526,2.9528,0,0,0,0,0,0,0,2.9357,2.9369,2.9487,2.9442,2.944,2.9421,2.9426,2.9494,2.9488,2.9443,2.9438,2.9445,2.9488,2.9508,2.9514,2.9622,2.952,2.9525,2.9529,2.9531,2.982,2.9823,0,0,0,0,0,0,2.9356,2.9365,2.9486,2.9489,2.9389,2.9427,2.9433,2.9465,2.9487,2.9486,2.9448,2.9442,2.95,2.9507,2.9516,2.9648,2.9526,2.9531,2.9535,2.9815,2.982,2.9825,0,0,0,0,0,0,2.9353,2.9368,2.9483,2.9426,2.9439,2.9434,2.9471,2.9468,2.9488,2.9491,2.9489,2.9471,2.9497,2.9508,2.9591,2.9649,2.9534,2.9539,2.981,2.9817,2.9823,2.9916,0,0,0,0,0,0,2.9349,2.9367,2.9411,2.9427,2.9442,2.9558,2.9475,2.9472,2.9499,2.949,2.9511,2.9511,2.9495,2.9583,2.9597,2.9655,2.9544,2.9805,2.9813,2.9821,2.9907,2.9924,2.9939,0,0,0,0,0,2.9343,2.9436,2.9414,2.9429,2.9497,2.9562,2.9571,2.955,2.9504,2.9547,2.9548,2.951,2.9641,2.9592,2.9607,2.9668,2.9801,2.9811,2.982,2.99,2.9921,2.9938,0,0,0,0,0,0,2.9428,2.9438,2.9413,2.9514,2.9538,2.9549,2.9604,2.9574,2.9611,2.9601,2.9575,2.958,2.9668,2.9677,2.9622,2.9778,2.9713,2.9726,2.9769,2.9789,2.9804,2.9799,2.9549,0,0,0,0,0,2.9458,2.951,2.9516,2.9605,2.9618,2.9609,2.9637,2.9619,2.9642,2.9652,2.9659,2.9683,2.9728,2.9759,2.9802,2.9909,2.991,2.9958,2.9974,2.9987,2.9997,3.005,3.007,2.9856,2.9856,2.9856,0,0,2.9522,2.9534,2.9568,2.9622,2.9638,2.9691,2.9618,2.9678,2.9717,2.9661,2.9738,2.9745,2.9769,2.9864,2.9906,2.9873,3.0057,2.9999,3.0009,3.0012,3.0062,3.0082,3.01,2.9862,2.9861,2.986,0,0,2.9664,2.968,2.9753,2.977,2.9795,2.9788,2.9806,2.9822,2.9823,2.9901,2.9859,2.9905,2.9986,3.0003,3.0023,3.017,3.0135,3.0185,3.0266,3.0318,3.0335,3.035,3.0398,3.0417,3.0196,3.0196,3.0196,0,2.974,2.9818,2.9795,2.9857,2.9881,2.9832,2.9905,2.9923,2.9961,2.9978,2.9941,3.0039,3.0053,3.0148,3.0184,3.0203,3.022,3.0181,3.0334,3.0349,3.0362,3.0409,3.0427,3.0202,3.0201,3.02,3.02,0,2.9908,2.9963,3.002,3.0056,3.0086,3.0154,3.014,3.0173,3.0152,3.0149,3.0227,3.0241,3.0284,3.0306,3.0288,3.0399,3.0378,3.0339,3.0273,3.0389,3.0431,3.0449,3.021,3.0208,3.0206,3.0205,0,0,3.0106,3.0126,3.0147,3.0161,3.0183,3.0225,3.029,3.0331,3.0358,3.0386,3.0437,3.0506,3.0469,3.0491,3.0474,3.052,3.0631,3.0475,3.0475,3.05,3.075,3.0777,3.0798,3.0609,3.0612,3.0615,3.0747,0,3.0244,3.0355,3.0335,3.0442,3.049,3.0444,3.0499,3.0518,3.0517,3.0557,3.0555,3.0603,3.0552,3.0565,3.0609,3.0608,3.068,3.0599,3.0654,3.0656,3.0646,3.0821,3.0851,3.0974,3.0764,3.0766,3.0769,0,3.0421,3.0453,3.0565,3.0576,3.0596,3.0646,3.068,3.0721,3.0741,3.0736,3.076,3.0733,3.0796,3.0731,3.0815,3.076,3.0781,3.0784,3.0789,3.0791,3.0717,3.0825,3.1014,3.1031,3.0795,3.0793,3.0791,0,3.0549,3.0621,3.0695,3.0709,3.0726,3.0762,3.077,3.0786,3.0811,3.0842,3.0857,3.0895,3.0915,3.0945,3.0928,3.0883,3.1014,3.0948,3.1009,3.101,3.1037,3.1035,3.1229,3.1057,3.1057,3.1056,3.1056,0,3.0705,3.0774,3.0752,3.0798,3.0873,3.0849,3.0924,3.0928,3.0942,3.0986,3.095,3.0992,3.0969,3.101,3.0997,3.1067,3.1077,3.1073,3.1069,3.1075,3.1075,3.1087,3.1077,3.1061,3.106,3.1059,3.1058,0,3.0859,3.0848,3.0926,3.0935,3.0938,3.0993,3.1,3.1042,3.1037,3.1093,3.1105,3.1097,3.1143,3.1129,3.118,3.1171,3.1258,3.1244,3.125,3.1246,3.1306,3.13,3.1513,3.1538,3.1352,3.1354,3.1355,0,3.0958,3.101,3.1023,3.1049,3.106,3.1105,3.1129,3.1107,3.1134,3.1159,3.1198,3.124,3.1272,3.1346,3.1344,3.1381,3.1366,3.1438,3.1371,3.1375,3.1363,3.1359,3.1362,3.145,3.1453,3.1454,3.1456,0,3.1133,3.1124,3.116,3.1195,3.1225,3.1251,3.1274,3.1298,3.1277,3.1309,3.1354,3.1379,3.1429,3.147,3.1503,3.1511,3.1479,3.1477,3.1492,3.1498,3.1498,3.1495,3.1283,3.1472,3.147,3.1469,3.1468,3.1467,3.126,3.1302,3.1317,3.1358,3.1373,3.1394,3.1433,3.1432,3.1469,3.1507,3.1492,3.1543,3.1559,3.16,3.1612,3.1651,3.1623,3.1647,3.1652,3.1658,3.1663,3.1494,3.1658,3.1657,3.1657,3.1656,3.1656,0,3.1429,3.1436,3.1474,3.1506,3.1538,3.1506,3.1529,3.1557,3.1602,3.162,3.1652,3.1702,3.1741,3.1742,3.1778,3.1809,3.1795,3.1819,3.1815,3.1816,3.1688,3.1669,3.1829,3.1829,3.1829,3.1829,3.1829,3.1829,3.1521,3.159,3.1582,3.1657,3.1663,3.1712,3.1727,3.1746,3.1759,3.1817,3.1849,3.1849,3.1859,3.1895,3.1929,3.1928,3.1941,3.197,3.1963,3.1843,3.1826,3.1809,3.1791,3.1974,3.1974,3.2088,3.2089,3.209]},{"header":{"parameterUnit":"m.s-1","parameterCategory":1,"la1":30.2991,"la2":30.254,"lo1":-89.0895,"lo2":-89.0444,"dy":0.0017,"dx":0.0017,"nx":28,"ny":28,"refTime":"2025-08-14T03:00:00:Z","depth":0,"parameterNumber":3,"parameterNumberName":"V-component_of_WINDS"},"data":[0,0,0,0,0,0,0,0,0,0,0,0,0,0,0,0,0,0,0,0,0,0,0,0,0,0,0,0,0,0,0,0,0,0,0,0,0,0,0,0,0,0,0,0,0,0,0,0,0,0,0,0,0,0,0,0,0,0,1.4548,1.4548,0,1.4541,1.4541,1.4541,1.4504,1.4503,1.4502,1.4501,1.4492,1.4493,1.4493,0,0,0,0,0,0,0,0,0,0,0,0,0,1.4527,1.4528,1.4548,1.4548,1.4548,1.4541,1.4541,1.4541,1.4504,1.4503,1.4502,1.4501,1.4492,1.4493,1.4493,0,0,0,0,0,0,0,0,0,0,0,0,0,1.453,1.4528,1.4548,1.4529,1.4527,1.4541,1.4541,1.4541,1.4504,1.4503,1.4501,1.45,1.4492,1.4493,1.4494,1.4525,0,0,1.4496,1.4497,0,0,0,0,0,0,0,0,1.453,1.4531,1.4532,1.453,1.4528,1.4522,1.453,1.4535,1.4504,1.4513,1.4501,1.45,1.4503,1.4503,1.4504,1.4525,1.4524,1.4496,1.4497,1.4497,1.4497,0,0,0,0,0,0,0,1.453,1.4531,1.4545,1.4532,1.453,1.4519,1.4518,1.4531,1.4515,1.4512,1.4509,1.4509,1.4502,1.4504,1.4504,1.4524,1.4496,1.4497,1.4498,1.4498,1.4567,1.4568,0,0,0,0,0,0,1.4533,1.4531,1.4545,1.4545,1.4526,1.4521,1.452,1.4525,1.4515,1.4512,1.451,1.4507,1.4503,1.4503,1.4503,1.4538,1.4497,1.4498,1.4499,1.4565,1.4567,1.4568,0,0,0,0,0,0,1.4532,1.4534,1.4546,1.4537,1.4538,1.4523,1.4529,1.4526,1.4528,1.4514,1.451,1.4515,1.4502,1.4502,1.4519,1.4537,1.4498,1.4499,1.4564,1.4566,1.4568,1.4608,0,0,0,0,0,0,1.4532,1.4534,1.4547,1.4538,1.4539,1.4563,1.453,1.4527,1.4529,1.4525,1.4517,1.4515,1.4501,1.4518,1.452,1.4537,1.45,1.4562,1.4565,1.4567,1.4605,1.4611,1.4616,0,0,0,0,0,1.4531,1.4559,1.4548,1.455,1.4554,1.4564,1.4564,1.4548,1.4531,1.4543,1.4533,1.4515,1.4535,1.452,1.4522,1.454,1.4561,1.4564,1.4567,1.4602,1.461,1.4616,0,0,0,0,0,0,1.4571,1.4558,1.4545,1.4571,1.4569,1.4558,1.4573,1.4557,1.4559,1.4556,1.4535,1.4533,1.4553,1.4548,1.4532,1.4568,1.4545,1.4548,1.4571,1.4578,1.4583,1.4584,1.4501,0,0,0,0,0,1.4583,1.4593,1.458,1.4604,1.4604,1.4588,1.4592,1.4579,1.4576,1.4575,1.4567,1.4564,1.4569,1.4573,1.4578,1.4604,1.46,1.4617,1.4622,1.4627,1.463,1.4641,1.4648,1.4578,1.4578,1.4578,0,0,1.4608,1.4601,1.4609,1.4612,1.4609,1.4618,1.4588,1.46,1.4606,1.4577,1.4592,1.4586,1.4581,1.4602,1.4611,1.4599,1.4648,1.4631,1.4635,1.4635,1.4645,1.4651,1.4657,1.458,1.458,1.4579,0,0,1.4657,1.4654,1.4672,1.467,1.4665,1.4654,1.4659,1.4649,1.4644,1.4659,1.4636,1.4643,1.4653,1.465,1.465,1.4695,1.4677,1.4697,1.4726,1.4737,1.4742,1.4747,1.4761,1.4767,1.47,1.47,1.47,0,1.4688,1.4702,1.4684,1.4696,1.4697,1.4671,1.4688,1.4686,1.4683,1.4684,1.467,1.4681,1.4676,1.4695,1.4705,1.4707,1.4709,1.4698,1.4743,1.4748,1.4752,1.4765,1.4771,1.4702,1.4702,1.4702,1.4702,0,1.4739,1.4749,1.4764,1.4761,1.4764,1.4779,1.4762,1.4767,1.4753,1.4744,1.4758,1.475,1.4752,1.4755,1.4743,1.4771,1.4764,1.4747,1.4722,1.4761,1.4773,1.4778,1.4706,1.4705,1.4704,1.4703,0,0,1.4815,1.48,1.4806,1.4803,1.4795,1.4802,1.4814,1.4815,1.4819,1.4817,1.4826,1.4834,1.4818,1.4817,1.4804,1.4813,1.4847,1.4795,1.4794,1.4803,1.4876,1.4887,1.4894,1.4835,1.4836,1.4837,1.4875,0,1.486,1.4882,1.4865,1.4889,1.4896,1.487,1.4881,1.4876,1.4867,1.4871,1.486,1.4866,1.4845,1.4844,1.4852,1.4841,1.4861,1.4838,1.4842,1.4842,1.4843,1.49,1.4914,1.495,1.488,1.4881,1.4882,0,1.4917,1.4917,1.4942,1.493,1.4932,1.4942,1.494,1.4945,1.4938,1.4931,1.4929,1.4912,1.4922,1.4898,1.491,1.4895,1.4895,1.489,1.4891,1.489,1.4864,1.49,1.4962,1.4967,1.4889,1.4889,1.4888,0,1.4967,1.4973,1.4988,1.4987,1.4974,1.4981,1.4976,1.4968,1.4969,1.4967,1.4967,1.4966,1.4965,1.4965,1.4947,1.4932,1.496,1.4936,1.4953,1.4953,1.496,1.496,1.5022,1.4962,1.4962,1.4962,1.4962,0,1.502,1.5035,1.501,1.502,1.5036,1.5015,1.5031,1.5023,1.5016,1.5022,1.4999,1.5005,1.4982,1.4985,1.4971,1.4982,1.4982,1.4975,1.4971,1.4976,1.4977,1.4976,1.4972,1.4963,1.4963,1.4963,1.4963,0,1.5079,1.5063,1.5077,1.5063,1.5059,1.5071,1.5058,1.5065,1.5054,1.5061,1.5062,1.5044,1.5046,1.5028,1.5027,1.5017,1.5034,1.5026,1.5036,1.5033,1.5051,1.5049,1.5113,1.512,1.5057,1.5058,1.5059,0,1.5113,1.5124,1.511,1.5112,1.5108,1.5112,1.5113,1.5092,1.5093,1.5085,1.5092,1.5092,1.5091,1.5095,1.5081,1.5079,1.507,1.5093,1.507,1.5074,1.5068,1.5068,1.5068,1.5098,1.5098,1.5099,1.51,0,1.5174,1.5165,1.5166,1.5165,1.5165,1.5163,1.5159,1.5162,1.5139,1.5141,1.5143,1.5142,1.514,1.5139,1.5134,1.5128,1.5109,1.5107,1.511,1.5116,1.512,1.5116,1.5048,1.5106,1.5105,1.5104,1.5104,1.5104,1.522,1.5228,1.5219,1.5221,1.5215,1.5211,1.5217,1.5205,1.5206,1.5203,1.519,1.5194,1.5184,1.5175,1.517,1.5171,1.516,1.5165,1.5167,1.5168,1.517,1.5121,1.517,1.517,1.517,1.517,1.517,0,1.5279,1.5271,1.5273,1.5267,1.5268,1.5251,1.5245,1.5247,1.525,1.5243,1.5241,1.5242,1.5241,1.5226,1.5222,1.5226,1.5217,1.5226,1.5225,1.5223,1.5182,1.5178,1.5233,1.5233,1.5233,1.5233,1.5233,1.5233,1.5309,1.5321,1.531,1.5318,1.531,1.5313,1.5311,1.5306,1.53,1.5302,1.5301,1.5291,1.528,1.5275,1.5273,1.5268,1.5267,1.5278,1.5271,1.5232,1.5226,1.522,1.5217,1.5278,1.5279,1.5311,1.5312,1.5312]}]]